Simultaneous Nadir Overpasses (SNOs) Predictions

Prediction of SNOs between GOES-16 and NOAA-20 Satellite Orbit:

Table of predicted SNOs for the next 14.0 days since TLE Epoch: 5/3/2019
Index Date Time (GOES-16) GOES-16 Lat,Lon NOAA-20 Lat,Lon Distance(km) Time Diff (sec)
1 05/04/2019 18:26:55 -0.00, -75.23 -0.11, -75.79 63.25 80
2 05/05/2019 18:10:50 -0.00, -75.24 0.87, -71.25 454.18 80
3 05/07/2019 06:32:37 0.00, -75.24 0.30, -76.52 145.86 80
4 05/08/2019 06:11:13 0.00, -75.25 -0.74, -71.99 371.44 80
5 05/09/2019 18:33:09 0.00, -75.27 -0.44, -77.30 230.78 80
6 05/10/2019 18:17:04 0.00, -75.28 0.55, -72.76 286.79 80
7 05/12/2019 06:38:51 -0.01, -75.30 0.63, -78.03 312.54 80
8 05/13/2019 06:17:26 -0.01, -75.31 -0.41, -73.51 205.34 80
9 05/14/2019 18:39:23 0.01, -75.34 -0.75, -78.82 395.79 80
10 05/15/2019 18:23:17 0.01, -75.36 0.23, -74.28 122.69 80
11 05/17/2019 06:45:05 -0.01, -75.38 0.94, -79.55 475.12 80




NCC Satellite Simultaneous Nadir Overpasses (SNOs) Prediction Service
